Portada
METAR-TAF:

METAR-TAF

Aeroports :

Bundaberg, Austràlia

latitud: 24-54-14S, longitud: 152-19-07E, altitud: 33 m

Observació

L'informe es va fer fa 21 minuts, a les 03:00 UTC
Vent 4 kt del Oest/Sud-Oest, variant entre Sud/Sud-Oest i Oest/Nord-Oest
Temperatura 26°C
Humitat 42%
Pressió 1015 hPa
Visibilitat 10 km o més
Núvols disperses a una alçada de 4500 ft
Núvols disperses a una alçada de 5600 ft
Núvols disperses a una alçada de 6500 ft

METAR: YBUD 260300Z AUTO 24004KT 200V300 9999 // SCT045 SCT056 SCT065 26/12 Q1015

Hora: 13:21 (03:21 UTC)


TAF: manca

Observacions i pronòstics meteorològics de més de 4000 aeroports (METAR i TAF).

Les estacions disponibles són els punts grocs i vermells al mapa.

Posi el ratolí al punt desitjat per veure el nom de l'estació.

Feu clic per veure les observacions i els pronòstics meteorològics.

Per canviar el mapa: feu clic els botons verds amb una creu de color negre per apropar; al botó verd amb un guió per allunyar la imatge; o en les fletxes verdes per a mapes adjacents.


METAR-TAF: